UAE25BZ OMDB-OPKC

Flight info

Callsign UAE25BZ
Flight time N/A
Altitude 39000
Route IVURO M428 TARBO Z440 DAMUM B524 ALPOR G216 LAKIV
Aircraft B772/H-SDE2E3FGHIJ5LORVWXY/LB1D1

Departure

Time 2026-05-04 05:45
Airport Dubai International Airport (OMDB)

Arrival

Time N/A
Airport Jinnah International Airport (OPKC)
Time Latitude Longitude Altitude Speed Heading
2026-05-04 05:26 25.24924 55.36222 26 ft 0 kts 211°
2026-05-04 05:38 25.24943 55.36235 31 ft 4 kts 211°
2026-05-04 05:38 25.24966 55.36251 31 ft 4 kts 220°
2026-05-04 05:38 25.24983 55.36273 31 ft 4 kts 244°
2026-05-04 05:39 25.24990 55.36300 31 ft 4 kts 278°
2026-05-04 05:39 25.24984 55.36320 31 ft 0 kts 300°
2026-05-04 05:42 25.24996 55.36296 31 ft 18 kts 300°
2026-05-04 05:42 25.25075 55.36153 30 ft 22 kts 303°
2026-05-04 05:42 25.25156 55.36010 30 ft 22 kts 301°
2026-05-04 05:42 25.25266 55.35815 31 ft 32 kts 301°
2026-05-04 05:43 25.25376 55.35695 27 ft 13 kts
2026-05-04 05:43 25.25510 55.35770 31 ft 34 kts 32°
2026-05-04 05:43 25.25578 55.35897 29 ft 0 kts 111°
2026-05-04 05:45 25.22657 55.41745 2674 ft 242 kts 129°
2026-05-04 05:45 25.21625 55.43265 3422 ft 251 kts 126°
2026-05-04 05:47 25.19793 55.57867 8707 ft 308 kts 91°
2026-05-04 05:47 25.19880 55.60221 9425 ft 309 kts 74°
2026-05-04 05:47 25.20834 55.62331 10182 ft 309 kts 47°
2026-05-04 05:48 25.22378 55.63970 10624 ft 322 kts 37°
2026-05-04 05:48 25.24133 55.65588 11312 ft 333 kts 37°
2026-05-04 05:48 25.25936 55.67238 12258 ft 338 kts 37°
2026-05-04 05:48 25.27749 55.68907 13341 ft 340 kts 37°
2026-05-04 05:49 25.29564 55.70597 14344 ft 343 kts 37°
2026-05-04 05:49 25.31391 55.72311 15344 ft 347 kts 37°
2026-05-04 05:49 25.33239 55.74049 16358 ft 350 kts 37°
2026-05-04 05:49 25.34873 55.75968 17124 ft 360 kts 54°
2026-05-04 05:51 25.36119 55.81081 18670 ft 381 kts 81°
2026-05-04 05:51 25.36378 55.84029 19460 ft 388 kts 81°
2026-05-04 05:52 25.36653 55.87013 20362 ft 392 kts 81°
2026-05-04 05:52 25.36921 55.89707 21170 ft 395 kts 81°
2026-05-04 05:52 25.37228 55.92708 22002 ft 401 kts 82°
2026-05-04 05:52 25.37187 55.95813 22732 ft 409 kts 98°
2026-05-04 05:53 25.36509 55.98909 23388 ft 419 kts 103°
2026-05-04 05:54 25.32195 56.17768 27169 ft 459 kts 107°
2026-05-04 05:55 25.31121 56.21118 27793 ft 466 kts 111°
2026-05-04 05:55 25.29939 56.24477 28387 ft 472 kts 111°
2026-05-04 05:55 25.28747 56.27884 29051 ft 478 kts 111°
2026-05-04 05:55 25.27578 56.31348 29648 ft 485 kts 110°
2026-05-04 05:56 25.26418 56.34879 30128 ft 492 kts 110°
2026-05-04 05:56 25.25255 56.38447 30644 ft 495 kts 110°
2026-05-04 05:56 25.24081 56.42025 31264 ft 496 kts 110°
2026-05-04 05:56 25.22898 56.45611 31807 ft 499 kts 110°
2026-05-04 05:57 25.21717 56.49179 32261 ft 503 kts 110°
2026-05-04 05:57 25.20510 56.52827 32691 ft 508 kts 111°
2026-05-04 05:57 25.19293 56.56505 33136 ft 512 kts 111°
2026-05-04 05:57 25.18051 56.60200 33566 ft 516 kts 112°
2026-05-04 05:58 25.16707 56.63888 33935 ft 520 kts 114°
2026-05-04 05:58 25.15299 56.67573 34315 ft 522 kts 114°
2026-05-04 05:58 25.13865 56.71265 34721 ft 524 kts 114°
2026-05-04 05:58 25.12429 56.74966 35124 ft 526 kts 114°
2026-05-04 05:59 25.10994 56.78693 35509 ft 528 kts 114°
2026-05-04 05:59 25.09586 56.82380 35870 ft 530 kts 114°
2026-05-04 05:59 25.08162 56.86129 36300 ft 530 kts 113°
2026-05-04 05:59 25.06743 56.89876 36782 ft 528 kts 113°
2026-05-04 06:00 25.05331 56.93607 37302 ft 526 kts 113°
2026-05-04 06:00 25.03922 56.97325 37810 ft 524 kts 113°
2026-05-04 06:00 25.02518 57.01025 38297 ft 523 kts 113°
2026-05-04 06:00 25.01114 57.04717 38705 ft 522 kts 113°
2026-05-04 06:01 24.99711 57.08403 39086 ft 521 kts 114°
2026-05-04 06:01 24.98329 57.12030 39462 ft 519 kts 114°
2026-05-04 06:03 24.88535 57.37640 40783 ft 515 kts 114°
2026-05-04 06:03 24.87145 57.41262 40786 ft 513 kts 113°
2026-05-04 06:05 24.74637 57.73754 40790 ft 513 kts 112°
2026-05-04 06:06 24.72603 57.81216 40793 ft 513 kts 101°
2026-05-04 06:06 24.71582 57.88972 40795 ft 512 kts 96°
2026-05-04 06:07 24.70666 57.96743 40789 ft 513 kts 96°
2026-05-04 06:07 24.69710 58.04519 40785 ft 513 kts 97°
2026-05-04 06:08 24.68722 58.12289 40786 ft 513 kts 97°
2026-05-04 06:08 24.67729 58.20012 40786 ft 513 kts 97°
2026-05-04 06:09 24.66728 58.27784 40784 ft 514 kts 97°
2026-05-04 06:11 24.62694 58.58844 40791 ft 515 kts 97°
2026-05-04 06:13 24.58583 58.89974 40787 ft 516 kts 97°
2026-05-04 06:14 24.54939 59.17167 40785 ft 513 kts 97°
2026-05-04 06:15 24.53737 59.24891 40785 ft 513 kts 102°
2026-05-04 06:15 24.52114 59.32482 40792 ft 513 kts 103°
2026-05-04 06:16 24.50451 59.40064 40786 ft 513 kts 103°
2026-05-04 06:16 24.48807 59.47685 40788 ft 514 kts 102°
2026-05-04 06:17 24.47171 59.55331 40786 ft 514 kts 102°
2026-05-04 06:17 24.45539 59.62956 40790 ft 514 kts 102°
2026-05-04 06:18 24.43905 59.70559 40779 ft 514 kts 103°
2026-05-04 06:20 24.37318 60.00990 40785 ft 512 kts 103°
2026-05-04 06:21 24.33171 60.19954 40787 ft 513 kts 103°
2026-05-04 06:22 24.31505 60.27510 40784 ft 513 kts 103°
2026-05-04 06:25 24.19712 60.80548 40785 ft 513 kts 103°
2026-05-04 06:26 24.18004 60.88163 40781 ft 514 kts 103°
2026-05-04 06:26 24.16306 60.95718 40774 ft 514 kts 103°
2026-05-04 06:27 24.12026 61.14682 40782 ft 512 kts 103°
2026-05-04 06:28 24.10321 61.22212 40784 ft 512 kts 103°
2026-05-04 06:28 24.08743 61.29771 40780 ft 511 kts 96°
2026-05-04 06:29 24.08459 61.37519 40794 ft 508 kts 84°
2026-05-04 06:29 24.09431 61.45121 40793 ft 505 kts 77°
2026-05-04 06:30 24.10633 61.52674 40791 ft 507 kts 77°
2026-05-04 06:30 24.11790 61.60311 40789 ft 508 kts 78°
2026-05-04 06:31 24.12897 61.67898 40790 ft 508 kts 78°
2026-05-04 06:31 24.14011 61.75553 40788 ft 508 kts 78°
2026-05-04 06:33 24.18190 62.06054 40794 ft 508 kts 79°
2026-05-04 06:34 24.19221 62.13723 40795 ft 508 kts 79°
2026-05-04 06:34 24.20240 62.21319 40794 ft 508 kts 79°
2026-05-04 06:36 24.24308 62.51965 40797 ft 509 kts 79°
2026-05-04 06:37 24.25316 62.59635 40798 ft 509 kts 79°
2026-05-04 06:37 24.26315 62.67266 40795 ft 509 kts 79°
2026-05-04 06:38 24.27317 62.74955 40799 ft 509 kts 79°
2026-05-04 06:40 24.31282 63.05680 40793 ft 510 kts 79°
2026-05-04 06:40 24.32267 63.13387 40801 ft 510 kts 79°
2026-05-04 06:41 24.33246 63.21086 40794 ft 510 kts 79°
2026-05-04 06:41 24.34215 63.28729 40797 ft 509 kts 79°
2026-05-04 06:42 24.35185 63.36420 40789 ft 509 kts 79°
2026-05-04 06:44 24.39022 63.67141 40793 ft 509 kts 79°
2026-05-04 06:44 24.39973 63.74842 40797 ft 510 kts 79°
2026-05-04 06:45 24.40922 63.82548 40793 ft 510 kts 79°
2026-05-04 06:45 24.41861 63.90212 40787 ft 510 kts 79°